Regional Weather Roundup
Issued by NWS

Home | Current Version | Previous Version | Text Only | Print | Product List | Glossary Off
Versions: 1 2 3 4 5 6 7 8 9 10 11 12 13 14 15 16 17 18 19 20 21 22 23 24 25 26 27 28 29 30 31 32 33 34 35 36 37 38 39 40 41 42 43 44 45 46 47 48 49 50

482
ASUS43 KFSD 172110
RWRSD

WEATHER ROUNDUP FOR SOUTH DAKOTA
NATIONAL WEATHER SERVICE SIOUX FALLS SD
300 PM CST WED JAN 17 2018

NOTE: "FAIR" INDICATES FEW OR NO CLOUDS BELOW 12,000 FEET WITH NO
SIGNIFICANT WEATHER AND/OR OBSTRUCTIONS TO VISIBILITY.


SDZ001>005-009-010-012>017-172200-
NORTHWEST AND NORTH CENTRAL SOUTH DAKOTA

CITY           SKY/WX    TMP DP  RH WIND       PRES   REMARKS
BUFFALO          N/A     35  24  64 W14       30.09F WCI  26
FAITH            N/A     39  26  59 W10       30.16F
MOBRIDGE       SUNNY     43  26  51 NW16      30.09F
$$

SDZ012>016-024>037-041>051-057-063-072>074-172200-
SOUTHWEST AND SOUTH CENTRAL SOUTH DAKOTA

CITY           SKY/WX    TMP DP  RH WIND       PRES   REMARKS
RAPID CTY ARPT SUNNY     47  28  47 NW8       30.21F
PIERRE         SUNNY     43  23  45 W17       30.17F
CUSTER         SUNNY     46  -1  14 S6        30.18F
ELLSWORTH AFB  SUNNY     46  27  48 N6        30.20S
PHILIP         SUNNY     46  28  49 W12       30.20F
PINE RIDGE     SUNNY     42  20  41 W8        30.25F
SPEARFISH        N/A     45  21  39 NW9       30.20F
WINNER         FAIR      41  25  53 W9        30.20F
$$

SDZ004>011-016>023-039-040-172200-
NORTHEAST SOUTH DAKOTA

CITY           SKY/WX    TMP DP  RH WIND       PRES   REMARKS
ABERDEEN       SUNNY     42  23  46 W14       30.10F
WATERTOWN      SUNNY     29  16  58 SW18      30.08F WCI  16
BROOKINGS      SUNNY     28  17  63 SW12      30.15F WCI  18
SISSETON         N/A     34  19  54 W8G20     30.05R WCI  27
$$

SDZ017-020-022-023-036>040-048>070-172200-
SOUTHEAST SOUTH DAKOTA

CITY           SKY/WX    TMP DP  RH WIND       PRES   REMARKS
SIOUX FALLS    SUNNY     31  17  56 SW8G20    30.20F WCI  23
HURON          SUNNY     41  18  39 W8        30.16F
CHAMBERLAIN    SUNNY     40  24  52 W12       30.18F
MITCHELL       SUNNY     35  21  56 SW9       30.19F WCI  28
YANKTON        SUNNY     37  17  44 SW15      30.22F
$$

ABBREVIATIONS USED IN REMARKS
   TC - TEMPERATURE IN CELSIUS
  WCI - WIND CHILL INDEX
   HX - HEAT INDEX
  VSB - VISIBILITY





USA.gov is the U.S. government's official web portal to all federal, state and local government web resources and services.